Regional Weather Roundup
Issued by NWS

Home | Current Version | Previous Version | Graphics & Text | Print | Product List | Glossary On
Versions: 1 2 3 4 5 6 7 8 9 10 11 12 13 14 15 16 17 18 19 20 21 22 23 24 25 26 27 28 29 30 31 32 33 34 35 36 37 38 39 40 41 42 43 44 45 46 47 48 49 50
000
ASUS43 KDMX 170607
RWRIA

WEATHER ROUNDUP FOR IOWA
NATIONAL WEATHER SERVICE DES MOINES IA
100 AM CDT WED SEP 17 2014

NOTE: "FAIR" INDICATES FEW OR NO CLOUDS BELOW 12,000 FEET WITH NO
SIGNIFICANT WEATHER AND/OR OBSTRUCTIONS TO VISIBILITY.

* - THESE STATIONS ARE NOT NWS STATIONS...THUS NOT UNDER NWS
QUALITY CONTROL.  THEY ALSO DO NOT REPORT WEATHER SUCH
AS PRECIPITATION OR FOG.

IAZ001>003-012>014-020>022-031>034-043>046-170700-
   NORTHWEST IOWA

CITY           SKY/WX    TMP DP  RH WIND       PRES   REMARKS
CARROLL *      PTCLDY    48  46  93 S3        30.01F
CHEROKEE *     MOCLDY    50  49  97 CALM      29.99F
DENISON *      CLOUDY    55  52  88 VRB5      29.98F
LE MARS *        N/A     59  52  77 S9        29.98R
ORANGE CITY *  CLOUDY    57  48  72 S5        29.98S
SHELDON *      CLOUDY    55  50  82 SE5       29.97F
SIOUX CITY     CLOUDY    58  53  84 SE5       29.98S
6HR MIN TEMP:  56; 6HR MAX TEMP:  64;

SPENCER        CLEAR     51  46  83 S6        29.99F
6HR MIN TEMP:  51; 6HR MAX TEMP:  64;

STORM LAKE *   CLEAR     52  50  93 S10       29.99F
$$

IAZ055>058-069>071-079>083-090>094-170700-
   SOUTHWEST IOWA

CITY           SKY/WX    TMP DP  RH WIND       PRES   REMARKS
ATLANTIC *     CLOUDY    59  52  77 CALM      30.00F
AUDUBON *      CLOUDY    52  46  82 CALM      30.02F
CLARINDA *     CLOUDY    59  55  88 CALM      30.02F
COUNCIL BLFS * CLOUDY    61  55  82 SE7       29.97F
CRESTON *      CLOUDY    55  52  88 SE6       30.03S
HARLAN  *      CLOUDY    57  54  88 CALM      30.03F
LAMONI         CLOUDY    56  50  80 SE5       30.03F
6HR MIN TEMP:  56; 6HR MAX TEMP:  63;

SHENANDOAH *     N/A     61  55  82 SE7       30.00F
$$

IAZ047>049-059>061-072>074-084-170700-
   CENTRAL IOWA

CITY           SKY/WX    TMP DP  RH WIND       PRES   REMARKS
AMES           PTCLDY    50  48  93 S3        30.03F
6HR MIN TEMP:  48; 6HR MAX TEMP:  60;

ANKENY *       CLEAR     50  50 100 CALM      30.03F
CHARITON *     CLOUDY    52  50  93 SE7       30.04F
DES MOINES     MOCLDY    55  49  80 SE6       30.03F
6HR MIN TEMP:  55; 6HR MAX TEMP:  64;

GRINNELL*      CLOUDY    54  48  82 SE3       30.05F
KNOXVILLE *    CLOUDY    54  48  82 SE6       30.03F
MARSHALLTOWN   CLOUDY    51  47  86 SE5       30.04F
6HR MIN TEMP:  46; 6HR MAX TEMP:  61;

PELLA *        PTCLDY    50  48  95 SE3       30.06F
PERRY *          N/A     50  49  95 SE5       30.03F
$$

IAZ004>006-015-016-023>025-035-036-170700-
   NORTH CENTRAL IOWA

CITY           SKY/WX    TMP DP  RH WIND       PRES   REMARKS
ALGONA *       CLOUDY    55  50  82 S6        30.01F
CLARION *        N/A     55  48  76 S8        30.02F
ESTHERVILLE    CLOUDY    53  49  86 S7        29.99F
6HR MIN TEMP:  48; 6HR MAX TEMP:  61;

FORT DODGE *   MOCLDY    54  46  76 S3        30.03S
MASON CITY     CLEAR     46  44  93 S3        30.04F
6HR MIN TEMP:  45; 6HR MAX TEMP:  61;

FOREST CITY *  PTCLDY    46  46 100 CALM      30.02F
IOWA FALLS *   CLOUDY    54  48  82 S6        30.04F
$$

IAZ007>011-017>019-026>030-037>042-050>054-066-170700-
   NORTHEAST IOWA

CITY           SKY/WX    TMP DP  RH WIND       PRES   REMARKS
CEDAR RAPIDS   CLEAR     46  45  96 CALM      30.06F
6HR MIN TEMP:  46; 6HR MAX TEMP:  61;

CHARLES CITY * CLEAR     48  45  87 S6        30.04F
CLINTON *      CLEAR     45  41  87 E5        30.10F
DECORAH *      CLEAR     50  45  81 CALM      30.04S
DUBUQUE        CLEAR     45  42  89 CALM      30.07F
6HR MIN TEMP:  45; 6HR MAX TEMP:  59;

MONTICELLO *   CLEAR     43  43 100 CALM      30.07S
OELWEIN *      CLEAR     45  43  93 S6        30.06F
WATERLOO       CLEAR     48  44  86 S5        30.04F
6HR MIN TEMP:  45; 6HR MAX TEMP:  62;

$$

IAZ064-065-067-068-078-170700-
   EAST CENTRAL IOWA

CITY           SKY/WX    TMP DP  RH WIND       PRES   REMARKS
DAVENPORT      CLEAR     47  43  86 SE6       30.08F
6HR MIN TEMP:  46; 6HR MAX TEMP:  60;

IOWA CITY      CLEAR     48  46  93 CALM      30.08F
6HR MIN TEMP:  48; 6HR MAX TEMP:  63;

MT. PLEASANT * CLEAR     47  45  92 SE3       30.07F
MUSCATINE *    CLEAR     48  46  93 CALM      30.08F
QUAD CITIES    CLEAR     46  43  89 CALM      30.08F
6HR MIN TEMP:  44; 6HR MAX TEMP:  64;

$$

IAZ062-063-075>077-085>089-095>099-170700-
   SOUTHEAST IOWA

CITY           SKY/WX    TMP DP  RH WIND       PRES   REMARKS
BURLINGTON     CLEAR     47  46  97 S3        30.07F
6HR MIN TEMP:  47; 6HR MAX TEMP:  59;

FAIRFIELD *    PTCLDY    48  45  87 CALM      30.07S
FORT MADISON * CLEAR     48  48 100 CALM      30.08S
KEOKUK *       CLEAR     50  48  93 CALM      30.06F
OSKALOOSA *      N/A     51  47  89 SE5       30.06F
CENTERVILLE *  CLEAR     50  50 100 SE5       30.07S
OTTUMWA        CLEAR     49  47  93 SE5       30.05F
6HR MIN TEMP:  48; 6HR MAX TEMP:  62;

WASHINGTON *   CLEAR     48  46  93 SE3       30.06F
$$

ABBREVIATIONS USED IN REMARKS
   TC - TEMPERATURES IN CELSIUS
  WCI - WIND CHILL INDEX
   HX - HEAT INDEX
  VSB - VISIBILITY
$$



USA.gov is the U.S. government's official web portal to all federal, state and local government web resources and services.